Weather History for Valparaiso, FL

Change the Weather History Date:

Sunday, March 3, 2013

  Actual Average Record
Temperature  
Mean Temperature 43 °F -  
Max Temperature 53 °F 67 °F 80 °F (1955)
Min Temperature 33 °F 45 °F 19 °F (1980)
Degree Days  
Heating Degree Days 22    
Moisture  
Dew Point 23 °F    
Average Humidity 51    
Maximum Humidity 73    
Minimum Humidity 25    
Precipitation  
Precipitation 0.00 in - - ()
Sea Level Pressure  
Sea Level Pressure 30.17 in    
Wind  
Wind Speed 9 mph (NW)    
Max Wind Speed 14 mph    
Max Gust Speed 23 mph    
Visibility 10 miles    
Events      
Averages and records for this station are not official NWS values.
T = Trace of Precipitation, MM = Missing Value Source: NWS Daily Summary

Daily Weather History Graph

Daily Weather History Graph

Search for Another Location

Airport:

Trip Planner

Search our weather history database for the weather conditions in past years. The results will help you decide how hot, cold, wet, or windy it might be!

Date:

Astronomy

Mar. 03, 2013 Rise Set
Actual Time 6:09 AM CST 5:46 PM CST
Civil Twilight 5:45 AM CST 6:10 PM CST
Nautical Twilight 5:17 AM CST 6:38 PM CST
Astronomical Twilight 4:50 AM CST 7:06 PM CST
Moon No Moon Rise 9:51 AM CST (3/3)
Length of Visible Light 12h 24m
Length of Day
11h 36m
Waning Gibbous, 63% of the Moon is Illuminated
Mar 3
Waning Gibbous
Mar 4
Last Quarter
Mar 11
New
Mar 19
First Quarter
Mar 27
Full

Hourly Weather History & Observations

Time (CST) Temp. Windchill Dew Point Humidity Pressure Visibility Wind Dir Wind Speed Gust Speed Precip Events Conditions
12:55 AM 39.0 °F 32.8 °F 21.9 °F 50% 30.17 in 10.0 mi NW 9.2 mph - N/A   Overcast
1:55 AM 38.1 °F 31.2 °F 22.6 °F 54% 30.15 in 10.0 mi NW 10.4 mph - N/A   Overcast
2:55 AM 36.9 °F 29.1 °F 24.3 °F 60% 30.15 in 10.0 mi NW 11.5 mph - N/A   Overcast
3:55 AM 35.6 °F 29.2 °F 25.3 °F 66% 30.16 in 10.0 mi NW 8.1 mph - N/A   Overcast
4:55 AM 35.1 °F 28.6 °F 26.1 °F 70% 30.16 in 10.0 mi WNW 8.1 mph - N/A   Overcast
5:55 AM 34.9 °F 26.6 °F 26.1 °F 70% 30.17 in 10.0 mi NW 11.5 mph - N/A   Mostly Cloudy
6:19 AM 33.8 °F 26.4 °F 24.8 °F 70% 30.17 in 10.0 mi NW 9.2 mph - N/A   Scattered Clouds
6:55 AM 34.9 °F 28.3 °F 25.5 °F 69% 30.19 in 10.0 mi NW 8.1 mph - N/A   Partly Cloudy
7:55 AM 37.2 °F 28.7 °F 24.8 °F 61% 30.21 in 10.0 mi NNW 13.8 mph 23.0 mph N/A   Scattered Clouds
8:55 AM 39.0 °F 32.3 °F 23.0 °F 53% 30.21 in 10.0 mi North 10.4 mph - N/A   Scattered Clouds
9:55 AM 42.1 °F 36.6 °F 20.8 °F 43% 30.20 in 10.0 mi NNW 9.2 mph - N/A   Scattered Clouds
10:55 AM 44.4 °F 40.0 °F 20.5 °F 39% 30.19 in 10.0 mi WNW 8.1 mph - N/A   Partly Cloudy
11:55 AM 46.4 °F 42.4 °F 20.8 °F 36% 30.17 in 10.0 mi West 8.1 mph 17.3 mph N/A   Partly Cloudy
12:55 PM 49.1 °F - 19.9 °F 32% 30.15 in 10.0 mi NNW 13.8 mph 18.4 mph N/A   Partly Cloudy
1:55 PM 51.1 °F - 19.2 °F 29% 30.13 in 10.0 mi NW 12.7 mph - N/A   Partly Cloudy
2:55 PM 52.5 °F - 18.7 °F 26% 30.13 in 10.0 mi NW 11.5 mph - N/A   Partly Cloudy
3:55 PM 53.2 °F - 18.3 °F 25% 30.12 in 10.0 mi NNW 9.2 mph - N/A   Partly Cloudy
4:55 PM 51.8 °F - 17.8 °F 26% 30.12 in 10.0 mi WNW 13.8 mph - N/A   Partly Cloudy
5:55 PM 48.0 °F - 19.2 °F 32% 30.14 in 10.0 mi NW 6.9 mph - N/A   Partly Cloudy
6:55 PM 43.3 °F 41.7 °F 23.4 °F 45% 30.17 in 10.0 mi West 3.5 mph - N/A   Clear
7:55 PM 41.2 °F 37.3 °F 24.6 °F 52% 30.18 in 10.0 mi West 5.8 mph - N/A   Clear
8:55 PM 38.8 °F 34.6 °F 23.9 °F 55% 30.19 in 10.0 mi WNW 5.8 mph - N/A   Clear
9:55 PM 38.3 °F 35.9 °F 24.8 °F 58% 30.20 in 10.0 mi NW 3.5 mph - N/A   Clear
10:55 PM 35.8 °F 31.9 °F 26.4 °F 69% 30.20 in 10.0 mi NW 4.6 mph - N/A   Clear
11:55 PM 33.4 °F - 25.7 °F 73% 30.18 in 10.0 mi North 2.3 mph - N/A   Clear